| time (UTC) | temp F | wind direction | speed knots | gust knots | rain 1hr in | rain 24hr in | rain mn in | humidity % | barometer mb |
| 20260508092729 | 39 | 3 | 0.0 | 0.0 | 0.00 | 0.03 | 0.00 | 82 | 979.9 |
| 20260508092227 | 39 | 3 | 0.0 | 0.0 | 0.00 | 0.03 | 0.00 | 82 | 979.9 |
| 20260508091727 | 39 | 3 | 0.0 | 0.0 | 0.00 | 0.03 | 0.00 | 82 | 979.9 |
| 20260508091227 | 40 | 3 | 0.0 | 0.0 | 0.00 | 0.03 | 0.00 | 81 | 980.0 |
| 20260508090727 | 40 | 3 | 0.0 | 0.0 | 0.00 | 0.03 | 0.00 | 80 | 980.0 |
| 20260508090227 | 40 | 3 | 0.0 | 0.0 | 0.00 | 0.03 | 0.00 | 79 | 980.0 |
| 20260508085728 | 41 | 3 | 0.0 | 0.9 | 0.00 | 0.03 | 0.00 | 79 | 980.0 |
| 20260508085228 | 41 | 3 | 0.0 | 0.9 | 0.00 | 0.03 | 0.00 | 79 | 980.1 |
| 20260508084726 | 41 | 156 | 0.0 | 0.0 | 0.00 | 0.03 | 0.00 | 79 | 979.9 |
| 20260508084225 | 41 | 157 | 0.0 | 0.0 | 0.00 | 0.03 | 0.00 | 79 | 979.9 |
| 20260508083726 | 41 | 157 | 0.0 | 0.0 | 0.00 | 0.03 | 0.00 | 78 | 980.0 |
| 20260508083225 | 42 | 156 | 0.0 | 0.0 | 0.00 | 0.03 | 0.00 | 78 | 980.0 |
| 20260508082724 | 42 | 157 | 0.0 | 0.0 | 0.00 | 0.03 | 0.00 | 77 | 980.1 |
| 20260508082223 | 42 | 157 | 0.0 | 0.0 | 0.00 | 0.03 | 0.00 | 78 | 980.1 |
| 20260508081723 | 42 | 157 | 0.0 | 0.0 | 0.00 | 0.03 | 0.00 | 78 | 980.2 |
| 20260508081223 | 42 | 156 | 0.0 | 0.0 | 0.00 | 0.03 | 0.00 | 77 | 980.4 |
| 20260508080729 | 44 | 156 | 0.0 | 0.9 | 0.00 | 0.03 | 0.00 | 74 | 980.5 |
| 20260508080725 | 42 | 157 | 0.0 | 0.9 | 0.00 | 0.03 | 0.00 | 76 | 980.5 |
| 20260508075723 | 44 | 135 | 0.0 | 0.9 | 0.00 | 0.03 | 0.00 | 74 | 980.6 |
| 20260508075224 | 45 | 199 | 0.0 | 0.9 | 0.00 | 0.03 | 0.00 | 73 | 980.7 |
| 20260508074724 | 44 | 219 | 0.0 | 0.9 | 0.00 | 0.03 | 0.00 | 73 | 980.8 |
| 20260508074226 | 43 | 170 | 0.0 | 0.9 | 0.00 | 0.03 | 0.00 | 75 | 980.9 |
| 20260508074222 | 44 | 178 | 0.0 | 0.0 | 0.00 | 0.03 | 0.00 | 75 | 981.1 |
| 20260508073721 | 43 | 170 | 0.0 | 0.0 | 0.00 | 0.03 | 0.00 | 76 | 980.9 |
| 20260508072721 | 43 | 170 | 0.0 | 1.7 | 0.00 | 0.03 | 0.00 | 75 | 980.8 |
| 20260508072222 | 43 | 220 | 0.0 | 1.7 | 0.00 | 0.03 | 0.00 | 74 | 980.8 |
| 20260508071722 | 43 | 129 | 0.0 | 0.9 | 0.00 | 0.03 | 0.00 | 74 | 980.7 |
| 20260508071221 | 43 | 165 | 0.0 | 0.0 | 0.00 | 0.03 | 0.00 | 73 | 981.1 |
| 20260508070721 | 44 | 165 | 0.0 | 0.9 | 0.00 | 0.03 | 0.00 | 72 | 980.9 |
| 20260508070221 | 44 | 165 | 0.0 | 0.9 | 0.00 | 0.03 | 0.00 | 72 | 980.8 |
| 20260508065721 | 45 | 346 | 0.0 | 0.9 | 0.00 | 0.03 | 0.00 | 70 | 980.9 |
| 20260508065221 | 45 | 346 | 0.0 | 0.9 | 0.00 | 0.03 | 0.00 | 70 | 981.2 |
| 20260508064721 | 45 | 332 | 0.0 | 0.9 | 0.00 | 0.03 | 0.00 | 70 | 980.9 |
| 20260508064226 | 45 | 212 | 0.0 | 0.0 | 0.00 | 0.03 | 0.00 | 69 | 980.7 |
| 20260508064222 | 45 | 208 | 0.0 | 0.0 | 0.00 | 0.03 | 0.00 | 70 | 980.7 |
| 20260508063221 | 46 | 158 | 0.0 | 0.0 | 0.00 | 0.03 | 0.00 | 68 | 980.7 |
| 20260508062721 | 46 | 162 | 0.0 | 0.0 | 0.00 | 0.03 | 0.00 | 66 | 980.7 |
| 20260508062221 | 47 | 162 | 0.0 | 0.0 | 0.00 | 0.03 | 0.00 | 65 | 980.7 |
| 20260508061719 | 47 | 162 | 0.0 | 0.0 | 0.00 | 0.03 | 0.00 | 64 | 980.7 |
| 20260508061218 | 47 | 162 | 0.0 | 0.0 | 0.00 | 0.03 | 0.00 | 64 | 980.7 |
| 20260508060717 | 47 | 302 | 0.0 | 0.9 | 0.00 | 0.03 | 0.00 | 64 | 980.8 |
| 20260508060217 | 47 | 266 | 0.0 | 0.9 | 0.00 | 0.03 | 0.00 | 64 | 980.7 |
| 20260508055717 | 47 | 150 | 0.0 | 0.9 | 0.00 | 0.03 | 0.03 | 63 | 980.5 |
| 20260508055223 | 47 | 150 | 0.0 | 2.6 | 0.00 | 0.03 | 0.03 | 64 | 980.4 |
| 20260508054714 | 47 | 197 | 0.0 | 2.6 | 0.00 | 0.03 | 0.03 | 63 | 980.2 |
| 20260508054214 | 48 | 159 | 0.0 | 0.9 | 0.00 | 0.03 | 0.03 | 63 | 980.4 |
| 20260508053714 | 48 | 159 | 0.0 | 0.9 | 0.00 | 0.03 | 0.03 | 62 | 980.2 |
| 20260508053214 | 48 | 345 | 0.0 | 0.9 | 0.00 | 0.03 | 0.03 | 61 | 980.5 |
| 20260508052712 | 48 | 345 | 0.0 | 0.9 | 0.00 | 0.03 | 0.03 | 61 | 980.6 |
| 20260508052211 | 48 | 274 | 0.0 | 0.0 | 0.00 | 0.03 | 0.03 | 62 | 980.5 |
| 20260508051710 | 49 | 172 | 0.0 | 0.0 | 0.00 | 0.03 | 0.03 | 60 | 980.4 |
| 20260508051210 | 49 | 172 | 0.0 | 0.0 | 0.00 | 0.03 | 0.03 | 58 | 980.2 |
| 20260508050714 | 49 | 172 | 0.0 | 0.0 | 0.00 | 0.03 | 0.03 | 58 | 980.1 |
| 20260508050710 | 49 | 172 | 0.0 | 0.0 | 0.00 | 0.03 | 0.03 | 58 | 980.0 |
| 20260508045711 | 50 | 170 | 0.0 | 0.0 | 0.00 | 0.03 | 0.03 | 58 | 980.1 |
| 20260508045210 | 49 | 173 | 0.0 | 0.0 | 0.00 | 0.03 | 0.03 | 57 | 980.1 |
| 20260508044710 | 50 | 168 | 0.0 | 0.0 | 0.00 | 0.03 | 0.03 | 58 | 980.0 |
| 20260508044214 | 51 | 168 | 0.0 | 0.0 | 0.00 | 0.03 | 0.03 | 55 | 980.1 |
| 20260508044210 | 50 | 169 | 0.0 | 0.0 | 0.00 | 0.03 | 0.03 | 58 | 980.1 |
| 20260508043210 | 51 | 168 | 0.0 | 0.9 | 0.00 | 0.03 | 0.03 | 53 | 980.0 |
| 20260508042713 | 52 | 174 | 0.0 | 0.9 | 0.00 | 0.03 | 0.03 | 55 | 980.1 |
| 20260508042709 | 51 | 179 | 0.0 | 0.9 | 0.00 | 0.03 | 0.03 | 54 | 980.1 |
| 20260508041708 | 52 | 218 | 0.0 | 0.0 | 0.00 | 0.03 | 0.03 | 53 | 980.1 |
| 20260508041208 | 53 | 218 | 0.0 | 0.0 | 0.00 | 0.03 | 0.03 | 50 | 980.1 |
| 20260508040708 | 53 | 218 | 0.0 | 0.0 | 0.00 | 0.03 | 0.03 | 49 | 980.1 |
| 20260508040212 | 54 | 202 | 0.0 | 0.0 | 0.00 | 0.03 | 0.03 | 50 | 980.1 |
| 20260508040208 | 54 | 207 | 0.0 | 0.0 | 0.00 | 0.03 | 0.03 | 49 | 980.1 |
| 20260508035208 | 54 | 206 | 0.0 | 0.9 | 0.00 | 0.03 | 0.03 | 47 | 980.2 |
| 20260508034709 | 54 | 192 | 0.0 | 0.9 | 0.00 | 0.03 | 0.03 | 48 | 980.1 |
| 20260508034208 | 55 | 206 | 0.0 | 0.9 | 0.00 | 0.03 | 0.03 | 46 | 980.2 |
| 20260508033706 | 55 | 212 | 0.0 | 0.9 | 0.00 | 0.03 | 0.03 | 45 | 980.1 |
| 20260508033211 | 56 | 263 | 1.7 | 5.2 | 0.00 | 0.03 | 0.03 | 43 | 980.1 |
| 20260508033206 | 56 | 121 | 0.9 | 5.2 | 0.00 | 0.03 | 0.03 | 44 | 979.9 |
| 20260508032206 | 56 | 2 | 2.6 | 7.0 | 0.00 | 0.03 | 0.03 | 43 | 980.1 |
| 20260508031706 | 57 | 11 | 2.6 | 7.0 | 0.00 | 0.03 | 0.03 | 41 | 980.2 |
| 20260508031206 | 57 | 345 | 1.7 | 7.0 | 0.00 | 0.03 | 0.03 | 39 | 980.4 |
| 20260508030706 | 57 | 328 | 0.9 | 4.3 | 0.00 | 0.03 | 0.03 | 38 | 980.1 |
| 20260508030206 | 58 | 347 | 0.0 | 4.3 | 0.00 | 0.03 | 0.03 | 37 | 979.9 |
| 20260508025706 | 58 | 344 | 0.0 | 0.9 | 0.00 | 0.03 | 0.03 | 37 | 979.6 |
| 20260508025205 | 58 | 20 | 0.0 | 2.6 | 0.00 | 0.03 | 0.03 | 37 | 979.6 |
| 20260508024704 | 58 | 307 | 0.0 | 2.6 | 0.00 | 0.03 | 0.03 | 37 | 979.5 |
| 20260508024210 | 58 | 321 | 0.0 | 1.7 | 0.00 | 0.03 | 0.03 | 35 | 979.4 |
| 20260508024204 | 58 | 321 | 0.0 | 1.7 | 0.00 | 0.03 | 0.03 | 35 | 979.4 |
| 20260508023811 | 58 | 330 | 0.0 | 2.6 | 0.00 | 0.03 | 0.03 | 36 | 979.2 |
| 20260508022704 | 58 | 323 | 0.0 | 2.6 | 0.00 | 0.03 | 0.03 | 36 | 979.2 |
| 20260508022202 | 59 | 309 | 0.0 | 1.7 | 0.00 | 0.03 | 0.03 | 35 | 979.2 |
| 20260508021702 | 59 | 329 | 0.0 | 3.5 | 0.00 | 0.03 | 0.03 | 34 | 979.1 |
| 20260508021202 | 58 | 307 | 0.0 | 3.5 | 0.00 | 0.03 | 0.03 | 34 | 979.1 |
| 20260508020711 | 59 | 291 | 0.0 | 0.0 | 0.00 | 0.03 | 0.03 | 35 | 978.9 |
| 20260508020702 | 58 | 334 | 0.0 | 0.9 | 0.00 | 0.03 | 0.03 | 35 | 978.9 |
| 20260508015704 | 59 | 214 | 0.0 | 0.0 | 0.00 | 0.03 | 0.03 | 35 | 978.7 |
| 20260508015700 | 59 | 274 | 0.0 | 0.0 | 0.00 | 0.03 | 0.03 | 35 | 978.8 |
| 20260508014700 | 59 | 314 | 0.0 | 0.0 | 0.00 | 0.03 | 0.03 | 35 | 978.7 |
| 20260508014204 | 60 | 314 | 0.0 | 0.9 | 0.00 | 0.03 | 0.03 | 34 | 978.5 |
| 20260508014159 | 59 | 314 | 0.0 | 0.9 | 0.00 | 0.03 | 0.03 | 34 | 978.5 |
| 20260508013806 | 60 | 253 | 0.0 | 0.9 | 0.00 | 0.03 | 0.03 | 33 | 978.5 |
| 20260508012700 | 60 | 12 | 0.0 | 1.7 | 0.00 | 0.03 | 0.03 | 33 | 978.5 |
| 20260508012201 | 61 | 12 | 0.0 | 1.7 | 0.00 | 0.03 | 0.03 | 32 | 978.5 |
| 20260508011659 | 61 | 321 | 0.0 | 0.9 | 0.00 | 0.03 | 0.03 | 30 | 978.5 |
| 20260508011157 | 61 | 301 | 0.0 | 1.7 | 0.00 | 0.03 | 0.03 | 30 | 978.3 |
| 20260508010656 | 62 | 219 | 0.0 | 5.2 | 0.00 | 0.03 | 0.03 | 32 | 978.3 |
| 20260508010202 | 63 | 319 | 0.0 | 1.7 | 0.00 | 0.04 | 0.03 | 28 | 978.3 |
| 20260508010156 | 62 | 324 | 0.0 | 5.2 | 0.00 | 0.03 | 0.03 | 29 | 978.3 |
| 20260508005656 | 62 | 290 | 0.0 | 1.7 | 0.00 | 0.03 | 0.03 | 29 | 978.3 |
| 20260508004655 | 62 | 255 | 0.0 | 1.7 | 0.00 | 0.04 | 0.03 | 28 | 978.3 |
| 20260508004156 | 62 | 255 | 0.0 | 1.7 | 0.00 | 0.04 | 0.03 | 29 | 978.2 |
| 20260508003656 | 61 | 8 | 0.0 | 0.9 | 0.00 | 0.04 | 0.03 | 29 | 978.2 |
| 20260508003156 | 62 | 280 | 0.0 | 0.9 | 0.00 | 0.05 | 0.03 | 28 | 978.2 |
| 20260508002656 | 62 | 277 | 0.0 | 0.9 | 0.00 | 0.05 | 0.03 | 28 | 978.2 |
| 20260508002200 | 62 | 8 | 0.9 | 4.3 | 0.00 | 0.06 | 0.03 | 28 | 978.2 |
| 20260508002156 | 62 | 343 | 0.0 | 2.6 | 0.00 | 0.05 | 0.03 | 27 | 978.3 |
| 20260508001155 | 62 | 338 | 0.9 | 4.3 | 0.00 | 0.06 | 0.03 | 28 | 978.2 |
| 20260508000656 | 63 | 330 | 1.7 | 7.0 | 0.00 | 0.06 | 0.03 | 27 | 978.3 |
| 20260508000155 | 63 | 320 | 2.6 | 7.0 | 0.00 | 0.07 | 0.03 | 28 | 978.3 |
| 20260507235655 | 64 | 321 | 1.7 | 5.2 | 0.00 | 0.07 | 0.03 | 27 | 978.3 |
| 20260507235155 | 64 | 328 | 1.7 | 5.2 | 0.00 | 0.07 | 0.03 | 29 | 978.3 |
| 20260507234656 | 64 | 305 | 1.7 | 6.1 | 0.00 | 0.08 | 0.03 | 26 | 978.3 |
| 20260507234155 | 65 | 311 | 1.7 | 6.1 | 0.00 | 0.09 | 0.03 | 27 | 978.2 |
| 20260507233656 | 64 | 340 | 1.7 | 6.1 | 0.00 | 0.09 | 0.03 | 27 | 978.3 |
| 20260507233155 | 65 | 343 | 1.7 | 5.2 | 0.00 | 0.10 | 0.03 | 26 | 978.5 |
| 20260507232655 | 65 | 321 | 1.7 | 6.1 | 0.00 | 0.11 | 0.03 | 27 | 978.5 |
| 20260507232156 | 65 | 224 | 1.7 | 7.8 | 0.00 | 0.11 | 0.03 | 28 | 978.5 |
| 20260507231655 | 66 | 328 | 1.7 | 7.8 | 0.00 | 0.12 | 0.03 | 28 | 978.5 |
| 20260507231159 | 66 | 309 | 0.9 | 5.2 | 0.00 | 0.13 | 0.03 | 28 | 978.6 |
| 20260507231155 | 66 | 7 | 0.9 | 6.1 | 0.00 | 0.12 | 0.03 | 27 | 978.5 |
| 20260507230156 | 65 | 318 | 0.9 | 5.2 | 0.00 | 0.14 | 0.03 | 29 | 978.6 |
| 20260507225700 | 65 | 314 | 0.9 | 6.1 | 0.00 | 0.15 | 0.03 | 29 | 978.5 |
| 20260507225656 | 65 | 326 | 0.9 | 5.2 | 0.00 | 0.14 | 0.03 | 27 | 978.6 |
| 20260507224659 | 64 | 11 | 1.7 | 7.0 | 0.00 | 0.15 | 0.03 | 28 | 978.6 |
| 20260507224655 | 64 | 345 | 1.7 | 7.0 | 0.00 | 0.15 | 0.03 | 31 | 978.5 |
| 20260507223655 | 64 | 339 | 2.6 | 7.8 | 0.00 | 0.16 | 0.03 | 29 | 978.6 |
| 20260507223153 | 64 | 299 | 3.5 | 7.8 | 0.00 | 0.17 | 0.03 | 27 | 978.6 |
| 20260507222654 | 65 | 340 | 2.6 | 7.8 | 0.00 | 0.17 | 0.03 | 28 | 978.6 |
| 20260507222153 | 66 | 309 | 1.7 | 7.0 | 0.00 | 0.18 | 0.03 | 27 | 978.6 |
| 20260507221653 | 66 | 305 | 2.6 | 8.7 | 0.00 | 0.18 | 0.03 | 26 | 978.7 |
| 20260507221153 | 66 | 48 | 2.6 | 8.7 | 0.00 | 0.19 | 0.03 | 28 | 978.8 |
| 20260507220658 | 66 | 341 | 3.5 | 11.3 | 0.00 | 0.21 | 0.03 | 29 | 979.1 |
| 20260507220654 | 66 | 296 | 2.6 | 7.8 | 0.00 | 0.20 | 0.03 | 26 | 978.8 |
| 20260507220152 | 66 | 88 | 2.6 | 7.8 | 0.00 | 0.21 | 0.03 | 27 | 979.1 |
| 20260507215153 | 65 | 195 | 2.6 | 11.3 | 0.00 | 0.22 | 0.03 | 27 | 979.2 |
| 20260507214653 | 66 | 224 | 2.6 | 9.6 | 0.00 | 0.22 | 0.03 | 27 | 979.2 |
| 20260507214156 | 64 | 11 | 3.5 | 9.6 | 0.00 | 0.23 | 0.03 | 30 | 979.3 |
| 20260507214152 | 65 | 342 | 3.5 | 9.6 | 0.00 | 0.23 | 0.03 | 30 | 979.2 |
| 20260507213151 | 65 | 326 | 2.6 | 7.0 | 0.00 | 0.24 | 0.03 | 31 | 979.3 |
| 20260507212651 | 64 | 315 | 3.5 | 7.8 | 0.00 | 0.24 | 0.03 | 29 | 979.3 |
| 20260507212151 | 64 | 355 | 4.3 | 10.4 | 0.00 | 0.25 | 0.03 | 31 | 979.3 |
| 20260507211649 | 64 | 333 | 4.3 | 10.4 | 0.00 | 0.25 | 0.03 | 31 | 979.4 |
| 20260507211147 | 64 | 334 | 4.3 | 10.4 | 0.00 | 0.26 | 0.03 | 33 | 979.4 |
| 20260507210647 | 64 | 338 | 4.3 | 10.4 | 0.00 | 0.27 | 0.03 | 34 | 979.5 |
| 20260507210147 | 63 | 337 | 5.2 | 10.4 | 0.00 | 0.27 | 0.03 | 36 | 979.5 |
| 20260507205645 | 63 | 15 | 5.2 | 13.0 | 0.00 | 0.28 | 0.03 | 33 | 979.6 |
| 20260507205145 | 63 | 349 | 4.3 | 13.0 | 0.00 | 0.28 | 0.03 | 33 | 979.6 |
| 20260507204643 | 63 | 333 | 4.3 | 8.7 | 0.00 | 0.28 | 0.03 | 34 | 979.5 |
| 20260507204143 | 63 | 322 | 4.3 | 13.9 | 0.00 | 0.29 | 0.03 | 34 | 979.6 |
| 20260507203644 | 63 | 335 | 4.3 | 13.9 | 0.00 | 0.29 | 0.03 | 32 | 979.8 |
| 20260507203147 | 62 | 14 | 4.3 | 9.6 | 0.00 | 0.30 | 0.03 | 32 | 979.9 |
| 20260507203143 | 62 | 26 | 4.3 | 9.6 | 0.00 | 0.30 | 0.03 | 34 | 979.6 |
| 20260507202141 | 62 | 315 | 3.5 | 9.6 | 0.00 | 0.30 | 0.03 | 32 | 980.0 |
| 20260507201641 | 62 | 315 | 2.6 | 7.0 | 0.00 | 0.30 | 0.03 | 34 | 980.0 |
| 20260507201141 | 61 | 325 | 2.6 | 7.0 | 0.00 | 0.31 | 0.03 | 34 | 980.0 |
| 20260507200642 | 61 | 20 | 1.7 | 7.0 | 0.00 | 0.31 | 0.03 | 32 | 980.1 |
| 20260507200142 | 61 | 240 | 1.7 | 7.8 | 0.00 | 0.32 | 0.03 | 37 | 980.2 |
| 20260507195648 | 61 | 273 | 2.6 | 9.6 | 0.00 | 0.32 | 0.03 | 34 | 980.2 |
| 20260507195141 | 60 | 301 | 2.6 | 9.6 | 0.00 | 0.32 | 0.03 | 33 | 980.4 |
| 20260507194646 | 61 | 299 | 1.7 | 9.6 | 0.00 | 0.33 | 0.03 | 34 | 980.4 |
| 20260507194145 | 61 | 219 | 1.7 | 7.8 | 0.00 | 0.33 | 0.03 | 35 | 980.4 |
| 20260507194141 | 61 | 308 | 1.7 | 7.8 | 0.00 | 0.33 | 0.03 | 34 | 980.4 |
| 20260507193139 | 61 | 312 | 1.7 | 6.1 | 0.00 | 0.33 | 0.03 | 38 | 980.4 |
| 20260507192639 | 61 | 281 | 0.9 | 6.1 | 0.00 | 0.34 | 0.03 | 35 | 980.4 |
| 20260507192139 | 61 | 243 | 0.9 | 5.2 | 0.00 | 0.34 | 0.03 | 33 | 980.5 |
| 20260507191639 | 61 | 188 | 1.7 | 6.1 | 0.00 | 0.34 | 0.03 | 35 | 980.5 |
| 20260507191143 | 61 | 248 | 1.7 | 5.2 | 0.00 | 0.35 | 0.03 | 37 | 980.6 |
| 20260507191139 | 61 | 295 | 1.7 | 6.1 | 0.00 | 0.34 | 0.03 | 34 | 980.5 |
| 20260507190139 | 60 | 321 | 1.7 | 5.2 | 0.00 | 0.35 | 0.03 | 38 | 980.6 |
| 20260507185639 | 60 | 210 | 0.9 | 6.1 | 0.00 | 0.35 | 0.03 | 34 | 980.7 |
| 20260507185142 | 60 | 304 | 0.9 | 4.3 | 0.00 | 0.36 | 0.03 | 37 | 980.9 |
| 20260507185137 | 60 | 304 | 0.9 | 6.1 | 0.00 | 0.36 | 0.03 | 34 | 980.8 |
| 20260507184137 | 59 | 181 | 1.7 | 7.8 | 0.00 | 0.36 | 0.03 | 39 | 981.1 |
| 20260507183635 | 59 | 198 | 1.7 | 7.8 | 0.00 | 0.36 | 0.03 | 37 | 980.9 |
| 20260507183135 | 58 | 304 | 1.7 | 6.1 | 0.00 | 0.36 | 0.03 | 38 | 981.1 |
| 20260507182639 | 58 | 247 | 1.7 | 4.3 | 0.00 | 0.36 | 0.03 | 45 | 981.3 |
| 20260507182634 | 58 | 264 | 1.7 | 6.1 | 0.00 | 0.36 | 0.03 | 38 | 981.2 |
| 20260507181634 | 58 | 203 | 0.9 | 4.3 | 0.00 | 0.36 | 0.03 | 40 | 981.3 |
| 20260507181132 | 57 | 174 | 0.9 | 3.5 | 0.00 | 0.36 | 0.03 | 39 | 981.3 |
| 20260507180633 | 57 | 217 | 0.9 | 3.5 | 0.00 | 0.36 | 0.03 | 39 | 981.4 |
| 20260507180133 | 57 | 222 | 0.9 | 4.3 | 0.00 | 0.36 | 0.03 | 43 | 981.3 |
| 20260507175633 | 57 | 191 | 0.9 | 4.3 | 0.00 | 0.36 | 0.03 | 40 | 981.3 |
| 20260507175133 | 57 | 256 | 0.9 | 5.2 | 0.00 | 0.36 | 0.03 | 40 | 981.2 |
| 20260507174632 | 57 | 200 | 1.7 | 5.2 | 0.00 | 0.36 | 0.03 | 39 | 981.3 |
| 20260507174133 | 57 | 186 | 1.7 | 6.1 | 0.00 | 0.36 | 0.03 | 38 | 981.3 |
| 20260507173633 | 58 | 234 | 2.6 | 7.0 | 0.00 | 0.36 | 0.03 | 42 | 981.3 |
| 20260507173132 | 57 | 186 | 2.6 | 7.0 | 0.00 | 0.36 | 0.03 | 40 | 981.3 |
| 20260507172633 | 57 | 192 | 1.7 | 6.1 | 0.01 | 0.36 | 0.03 | 40 | 981.4 |
| 20260507172133 | 58 | 229 | 0.9 | 4.3 | 0.01 | 0.36 | 0.03 | 39 | 981.5 |
| 20260507171638 | 56 | 234 | 1.7 | 7.0 | 0.02 | 0.36 | 0.03 | 41 | 981.7 |
| 20260507171633 | 57 | 275 | 0.9 | 4.3 | 0.01 | 0.36 | 0.03 | 40 | 981.5 |
| 20260507170637 | 56 | 221 | 1.7 | 7.0 | 0.02 | 0.36 | 0.03 | 40 | 981.8 |
| 20260507170632 | 56 | 212 | 1.7 | 7.0 | 0.02 | 0.36 | 0.03 | 39 | 981.7 |
| 20260507165635 | 56 | 246 | 2.6 | 7.0 | 0.03 | 0.36 | 0.03 | 39 | 981.8 |
| 20260507165631 | 56 | 242 | 1.7 | 7.0 | 0.03 | 0.36 | 0.03 | 41 | 981.8 |
| 20260507164631 | 56 | 217 | 2.6 | 6.1 | 0.03 | 0.36 | 0.03 | 38 | 981.9 |
| 20260507164128 | 55 | 178 | 2.6 | 7.0 | 0.03 | 0.36 | 0.03 | 39 | 982.0 |
| 20260507163628 | 55 | 183 | 3.5 | 7.0 | 0.03 | 0.36 | 0.03 | 41 | 982.0 |
| 20260507163129 | 55 | 191 | 2.6 | 6.1 | 0.03 | 0.36 | 0.03 | 40 | 981.9 |
| 20260507162628 | 54 | 238 | 2.6 | 5.2 | 0.02 | 0.35 | 0.03 | 41 | 982.0 |
| 20260507162130 | 54 | 210 | 2.6 | 5.2 | 0.02 | 0.35 | 0.02 | 39 | 982.0 |
| 20260507161629 | 53 | 195 | 2.6 | 5.2 | 0.02 | 0.35 | 0.02 | 40 | 982.1 |
| 20260507161129 | 53 | 214 | 2.6 | 6.1 | 0.01 | 0.34 | 0.02 | 40 | 982.1 |
| 20260507160629 | 53 | 233 | 2.6 | 6.1 | 0.01 | 0.34 | 0.01 | 41 | 982.1 |
| 20260507160129 | 52 | 206 | 2.6 | 6.1 | 0.01 | 0.34 | 0.01 | 43 | 982.2 |
| 20260507155628 | 52 | 183 | 2.6 | 7.8 | 0.00 | 0.33 | 0.01 | 43 | 982.2 |
| 20260507155129 | 51 | 207 | 3.5 | 7.8 | 0.00 | 0.33 | 0.00 | 42 | 982.2 |
| 20260507154634 | 51 | 223 | 3.5 | 7.8 | 0.00 | 0.33 | 0.00 | 44 | 982.1 |
| 20260507154629 | 51 | 222 | 3.5 | 7.0 | 0.00 | 0.33 | 0.00 | 43 | 982.1 |
| 20260507153629 | 51 | 238 | 3.5 | 7.8 | 0.00 | 0.33 | 0.00 | 43 | 982.2 |
| 20260507153127 | 50 | 221 | 3.5 | 7.0 | 0.00 | 0.33 | 0.00 | 43 | 982.2 |
| 20260507152627 | 50 | 229 | 3.5 | 7.0 | 0.00 | 0.33 | 0.00 | 42 | 982.2 |
| 20260507152127 | 49 | 205 | 3.5 | 7.0 | 0.00 | 0.33 | 0.00 | 43 | 982.1 |
| 20260507151627 | 49 | 212 | 3.5 | 7.0 | 0.00 | 0.33 | 0.00 | 43 | 982.1 |
| 20260507151127 | 49 | 203 | 3.5 | 7.0 | 0.00 | 0.33 | 0.00 | 44 | 982.0 |
| 20260507150632 | 48 | 242 | 2.6 | 7.8 | 0.00 | 0.33 | 0.00 | 43 | 982.2 |
| 20260507150627 | 48 | 221 | 3.5 | 7.8 | 0.00 | 0.33 | 0.00 | 42 | 982.1 |
| 20260507150126 | 48 | 214 | 3.5 | 7.8 | 0.00 | 0.33 | 0.00 | 43 | 982.2 |
| 20260507145732 | 47 | 213 | 1.7 | 7.0 | 0.00 | 0.33 | 0.00 | 44 | 982.2 |
| 20260507144627 | 46 | 206 | 2.6 | 6.1 | 0.00 | 0.33 | 0.00 | 44 | 982.2 |
| 20260507144126 | 46 | 169 | 3.5 | 6.1 | 0.00 | 0.33 | 0.00 | 47 | 982.2 |
| 20260507143626 | 45 | 236 | 2.6 | 5.2 | 0.00 | 0.33 | 0.00 | 47 | 982.2 |
| 20260507143130 | 44 | 193 | 2.6 | 7.0 | 0.00 | 0.33 | 0.00 | 50 | 982.1 |
| 20260507143126 | 45 | 211 | 2.6 | 6.1 | 0.00 | 0.33 | 0.00 | 49 | 982.1 |
| 20260507142126 | 43 | 231 | 2.6 | 7.0 | 0.00 | 0.33 | 0.00 | 50 | 982.1 |
| 20260507141625 | 43 | 178 | 1.7 | 6.1 | 0.00 | 0.33 | 0.00 | 49 | 982.2 |
| 20260507141125 | 42 | 196 | 1.7 | 5.2 | 0.00 | 0.33 | 0.00 | 49 | 982.4 |
| 20260507140622 | 42 | 242 | 1.7 | 5.2 | 0.00 | 0.33 | 0.00 | 50 | 982.2 |
| 20260507140123 | 41 | 237 | 1.7 | 5.2 | 0.00 | 0.33 | 0.00 | 51 | 982.2 |
| 20260507135623 | 40 | 229 | 0.9 | 5.2 | 0.00 | 0.33 | 0.00 | 53 | 982.2 |
| 20260507135123 | 37 | 198 | 0.0 | 1.7 | 0.00 | 0.33 | 0.00 | 61 | 982.1 |
| 20260507134623 | 36 | 179 | 0.0 | 0.0 | 0.00 | 0.33 | 0.00 | 66 | 982.0 |
| 20260507134128 | 35 | 192 | 0.0 | 0.9 | 0.00 | 0.33 | 0.00 | 64 | 982.1 |
| 20260507134122 | 35 | 193 | 0.0 | 0.0 | 0.00 | 0.33 | 0.00 | 66 | 982.0 |
| 20260507133619 | 35 | 193 | 0.0 | 0.0 | 0.00 | 0.33 | 0.00 | 65 | 982.0 |
| 20260507132618 | 35 | 203 | 0.0 | 0.9 | 0.00 | 0.33 | 0.00 | 63 | 982.1 |
| 20260507132117 | 35 | 124 | 0.0 | 0.0 | 0.00 | 0.33 | 0.00 | 61 | 982.0 |
| 20260507131616 | 35 | 124 | 0.0 | 0.0 | 0.00 | 0.33 | 0.00 | 60 | 982.0 |
| 20260507131116 | 36 | 124 | 0.0 | 0.0 | 0.00 | 0.33 | 0.00 | 59 | 982.0 |
| 20260507130616 | 37 | 120 | 0.0 | 0.9 | 0.00 | 0.33 | 0.00 | 56 | 981.9 |
| 20260507130116 | 38 | 119 | 0.0 | 1.7 | 0.00 | 0.33 | 0.00 | 53 | 981.9 |
| 20260507125616 | 39 | 134 | 0.0 | 1.7 | 0.00 | 0.33 | 0.00 | 46 | 981.9 |
| 20260507125116 | 39 | 261 | 0.9 | 2.6 | 0.00 | 0.33 | 0.00 | 46 | 981.8 |
| 20260507124616 | 39 | 248 | 0.9 | 6.1 | 0.00 | 0.33 | 0.00 | 47 | 981.8 |
| 20260507124116 | 38 | 221 | 0.9 | 6.1 | 0.00 | 0.33 | 0.00 | 47 | 981.5 |
| 20260507123620 | 35 | 162 | 0.0 | 2.6 | 0.00 | 0.33 | 0.00 | 53 | 981.4 |
| 20260507123616 | 38 | 222 | 0.9 | 4.3 | 0.00 | 0.33 | 0.00 | 48 | 981.5 |
| 20260507123114 | 37 | 199 | 0.0 | 4.3 | 0.00 | 0.33 | 0.00 | 50 | 981.4 |
| 20260507122720 | 34 | 202 | 0.0 | 2.6 | 0.00 | 0.33 | 0.00 | 57 | 981.4 |
| 20260507121618 | 31 | 245 | 0.0 | 0.0 | 0.00 | 0.33 | 0.00 | 65 | 981.4 |
| 20260507121614 | 33 | 227 | 0.0 | 2.6 | 0.00 | 0.33 | 0.00 | 59 | 981.4 |
| 20260507120614 | 31 | 316 | 0.0 | 0.0 | 0.00 | 0.33 | 0.00 | 64 | 981.3 |
| 20260507120114 | 31 | 224 | 0.0 | 0.0 | 0.00 | 0.33 | 0.00 | 63 | 981.3 |
| 20260507115614 | 31 | 148 | 0.0 | 0.0 | 0.00 | 0.33 | 0.00 | 63 | 981.3 |
| 20260507115114 | 32 | 39 | 0.0 | 0.0 | 0.00 | 0.33 | 0.00 | 61 | 981.4 |
| 20260507114615 | 33 | 39 | 0.0 | 0.0 | 0.00 | 0.33 | 0.00 | 58 | 981.4 |
| 20260507114118 | 37 | 235 | 1.7 | 4.3 | 0.00 | 0.33 | 0.00 | 49 | 981.4 |
| 20260507114112 | 36 | 72 | 0.0 | 3.5 | 0.00 | 0.33 | 0.00 | 54 | 981.4 |
| 20260507113612 | 37 | 56 | 0.9 | 4.3 | 0.00 | 0.33 | 0.00 | 49 | 981.3 |
| 20260507112612 | 36 | 214 | 1.7 | 4.3 | 0.00 | 0.33 | 0.00 | 51 | 981.4 |
| 20260507112112 | 34 | 233 | 0.9 | 4.3 | 0.00 | 0.33 | 0.00 | 55 | 981.4 |
| 20260507111612 | 30 | 160 | 0.0 | 2.6 | 0.00 | 0.33 | 0.00 | 65 | 981.4 |
| 20260507111112 | 29 | 18 | 0.0 | 0.9 | 0.00 | 0.33 | 0.00 | 71 | 981.3 |
| 20260507110616 | 28 | 219 | 0.0 | 0.0 | 0.00 | 0.33 | 0.00 | 69 | 981.3 |
| 20260507110612 | 28 | 219 | 0.0 | 0.0 | 0.00 | 0.33 | 0.00 | 70 | 981.3 |
| 20260507110217 | 29 | 219 | 0.0 | 0.0 | 0.00 | 0.33 | 0.00 | 68 | 981.4 |
| 20260507105715 | 29 | 219 | 0.0 | 0.0 | 0.00 | 0.33 | 0.00 | 69 | 981.3 |
| 20260507104610 | 30 | 219 | 0.0 | 0.0 | 0.00 | 0.33 | 0.00 | 66 | 981.3 |
| 20260507104110 | 31 | 219 | 0.0 | 0.0 | 0.00 | 0.33 | 0.00 | 64 | 981.4 |
| 20260507103610 | 32 | 235 | 0.0 | 0.0 | 0.00 | 0.33 | 0.00 | 61 | 981.4 |
| 20260507103110 | 34 | 235 | 0.0 | 0.0 | 0.00 | 0.33 | 0.00 | 58 | 981.3 |
| 20260507102610 | 35 | 235 | 0.0 | 0.0 | 0.00 | 0.33 | 0.00 | 55 | 981.4 |
| 20260507102110 | 36 | 238 | 0.0 | 0.9 | 0.00 | 0.33 | 0.00 | 51 | 981.4 |
| 20260507101610 | 36 | 212 | 0.0 | 1.7 | 0.00 | 0.33 | 0.00 | 52 | 981.4 |
| 20260507101117 | 38 | 269 | 1.7 | 3.5 | 0.00 | 0.33 | 0.00 | 46 | 981.5 |
| 20260507101110 | 38 | 162 | 0.0 | 2.6 | 0.00 | 0.33 | 0.00 | 46 | 981.5 |
| 20260507100610 | 38 | 214 | 0.9 | 3.5 | 0.00 | 0.33 | 0.00 | 45 | 981.5 |
| 20260507100216 | 38 | 202 | 2.6 | 7.0 | 0.00 | 0.33 | 0.00 | 47 | 981.5 |
| 20260507095610 | 38 | 191 | 1.7 | 4.3 | 0.00 | 0.33 | 0.00 | 47 | 981.4 |
| 20260507094608 | 38 | 157 | 2.6 | 7.0 | 0.00 | 0.33 | 0.00 | 48 | 981.5 |
| 20260507094108 | 38 | 206 | 2.6 | 7.0 | 0.00 | 0.33 | 0.00 | 47 | 981.7 |
| 20260507093606 | 38 | 248 | 1.7 | 5.2 | 0.00 | 0.33 | 0.00 | 47 | 981.8 |